Inglewood, CA

7:56 PM PDT on July 29, 2016 (GMT -0700)
Northrop-Hawthorne Municipal

Weather History for KHHR - December, 2012

Change the Weather History Date:

Wednesday, December 12, 2012

  Actual Average Record
Temperature  
Mean Temperature 58 °F -  
Max Temperature 62 °F 66 °F 84 °F (2010)
Min Temperature 55 °F 48 °F 35 °F (1949)
Degree Days  
Heating Degree Days 6    
Growing Degree Days 8 (Base 50)    
Moisture  
Dew Point 50 °F    
Average Humidity 75    
Maximum Humidity 94    
Minimum Humidity 55    
Precipitation  
Precipitation 0.03 in - - ()
Sea Level Pressure  
Sea Level Pressure 29.91 in    
Wind  
Wind Speed 3 mph (SE)    
Max Wind Speed 9 mph    
Max Gust Speed -    
Visibility 9 miles    
Events Rain    
Averages and records for this station are not official NWS values.
T = Trace of Precipitation, MM = Missing Value Source: NWS Daily Summary

Daily Weather History Graph

Daily Weather History Graph

Search for Another Location

Airport or City:

Trip Planner

Search our weather history database for the weather conditions in past years. The results will help you decide how hot, cold, wet, or windy it might be!

Date:

Astronomy

Dec. 12, 2012 Rise Set
Actual Time 6:49 AM PST 4:45 PM PST
Civil Twilight 6:21 AM PST 5:12 PM PST
Nautical Twilight 5:50 AM PST 5:44 PM PST
Astronomical Twilight 5:20 AM PST 6:14 PM PST
Moon 6:00 AM PST (12/12) 4:26 PM PST (12/12)
Length of Visible Light 10h 50m
Length of Day
9h 55m
Waning Crescent, 0% of the Moon is Illuminated
Dec 12
Waning Crescent
Dec 13
New
Dec 19
First Quarter
Dec 28
Full
Jan 4
Last Quarter

Hourly Weather History & Observations

Time (PST) Temp. Dew Point Humidity Pressure Visibility Wind Dir Wind Speed Gust Speed Precip Events Conditions
12:53 AM 57.0 °F 52.0 °F 83% 29.97 in 9.0 mi Calm Calm - N/A   Overcast
1:53 AM 57.0 °F 52.0 °F 83% 29.96 in 7.0 mi SE 3.5 mph - N/A   Overcast
2:00 AM 57.2 °F 51.8 °F 82% 29.96 in 7.0 mi SE 4.6 mph - N/A   Overcast
2:16 AM 55.4 °F 51.8 °F 88% 29.96 in 7.0 mi SE 3.5 mph - N/A   Mostly Cloudy
2:53 AM 55.9 °F 52.0 °F 87% 29.95 in 6.0 mi Calm Calm - N/A   Overcast
3:53 AM 57.0 °F 52.0 °F 83% 29.95 in 7.0 mi Calm Calm - N/A   Overcast
4:53 AM 57.0 °F 51.1 °F 81% 29.94 in 7.0 mi East 6.9 mph - N/A   Mostly Cloudy
5:29 AM 57.2 °F 50.0 °F 77% 29.95 in 7.0 mi East 4.6 mph - N/A   Overcast
5:53 AM 57.0 °F 48.9 °F 74% 29.96 in 8.0 mi East 3.5 mph - N/A   Overcast
6:53 AM 55.9 °F 48.9 °F 77% 29.96 in 7.0 mi ESE 4.6 mph - N/A   Overcast
7:38 AM 55.4 °F 48.2 °F 77% 29.96 in 7.0 mi East 6.9 mph - N/A   Overcast
7:46 AM 55.4 °F 48.2 °F 77% 29.96 in 7.0 mi East 5.8 mph - N/A   Overcast
7:53 AM 57.0 °F 48.9 °F 74% 29.96 in 8.0 mi East 6.9 mph - N/A   Mostly Cloudy
8:53 AM 57.9 °F 48.9 °F 72% 29.96 in 9.0 mi East 3.5 mph - N/A   Mostly Cloudy
9:53 AM 59.0 °F 50.0 °F 72% 29.97 in 10.0 mi East 4.6 mph - N/A   Overcast
10:53 AM 60.1 °F 50.0 °F 69% 29.95 in 10.0 mi North - - N/A   Overcast
11:10 AM 60.8 °F 51.8 °F 72% 29.95 in 10.0 mi East 4.6 mph - N/A   Overcast
11:53 AM 61.0 °F 50.0 °F 67% 29.94 in 10.0 mi SE 4.6 mph - N/A   Overcast
12:51 PM 62.6 °F 46.4 °F 55% 29.90 in 10.0 mi Calm Calm - N/A   Overcast
12:53 PM 62.1 °F 46.9 °F 58% 29.91 in 10.0 mi South 3.5 mph - N/A   Overcast
1:53 PM 62.1 °F 46.9 °F 58% 29.88 in 10.0 mi SE 5.8 mph - N/A   Overcast
2:53 PM 62.1 °F 46.0 °F 56% 29.88 in 10.0 mi South 4.6 mph - N/A   Overcast
3:53 PM 61.0 °F 46.9 °F 60% 29.87 in 10.0 mi SE 5.8 mph - N/A   Overcast
4:53 PM 61.0 °F 46.9 °F 60% 29.86 in 10.0 mi South 4.6 mph - N/A   Overcast
5:53 PM 61.0 °F 46.9 °F 60% 29.86 in 10.0 mi SSE 3.5 mph - N/A   Overcast
6:53 PM 61.0 °F 46.9 °F 60% 29.86 in 10.0 mi Calm Calm - N/A   Overcast
7:53 PM 60.1 °F 48.9 °F 67% 29.86 in 10.0 mi Calm Calm - N/A   Overcast
8:53 PM 60.1 °F 51.1 °F 72% 29.86 in 10.0 mi WSW 5.8 mph - N/A   Overcast
9:53 PM 59.0 °F 53.1 °F 81% 29.86 in 10.0 mi West 3.5 mph - N/A   Overcast
10:34 PM 57.2 °F 53.6 °F 88% 29.86 in 8.0 mi WSW 6.9 mph - 0.02 in Rain Light Rain
10:46 PM 57.2 °F 55.4 °F 94% 29.86 in 8.0 mi WSW 4.6 mph - 0.02 in Rain Light Rain
10:49 PM 57.2 °F 55.4 °F 94% 29.86 in 7.0 mi WSW 3.5 mph - 0.02 in Rain Light Rain
10:53 PM 57.0 °F 55.0 °F 93% 29.86 in 8.0 mi Variable 4.6 mph - 0.02 in Rain Light Rain
11:06 PM 57.2 °F 53.6 °F 88% 29.86 in 10.0 mi WSW 9.2 mph - 0.01 in Rain Light Rain
11:16 PM 57.2 °F 53.6 °F 88% 29.86 in 10.0 mi WSW 5.8 mph - 0.01 in Rain Light Rain
11:53 PM 57.0 °F 54.0 °F 89% 29.85 in 10.0 mi Calm Calm - 0.01 in   Overcast